Powrót do katalogu

STARLINK-30193

AktywnyŁącznośćVLEO
NORAD 57414·PAYLOAD·🇺🇸 United States

Wystrzelony Jul 20, 2023 z Vandenberg Space Force Base

Loading…

Następne Przeloty (najbliższe 24 godziny)

TLE

ŚwieżeSource: CelesTrak SupGP

Epoka: Sep 15, 2026, 03:23 UTC

1 57414C 23102L   26258.14145833  .00047440  00000+0  42156-3 0  2588
2 57414  42.9980 234.2920 0007394 136.5488 210.5481 15.67529404    10

Śledź STARLINK-30193 w czasie rzeczywistym z AllMySat

Download on the App Store